When you browse on this site, cookies collect data to enhance your experience and personalize the content and advertising you see.
Visit our Privacy Policy to learn more. By continuing to use the site, you agree to this use of cookies and data.
  • în România
  • Lista ţărilor
  • Pe 7 zile
  • Temperatura apei
  • Meteo pe hartă
  • Widget-uri
  • user-avatar
    Intrare

    Meteo pe oră la Fria

    Astăzi, 21 August, Miercuri

    Timp Temperatura Precipitaţii Vânt Presiune Umiditate
    00:00 +25°C° 0.1 mm 1 m/s 754 mmHg 98%
    01:00 +25°C° 0.1 mm 1 m/s 753 mmHg 98%
    02:00 +25°C° 0.1 mm 1 m/s 753 mmHg 98%
    03:00 +23°C° 0.3 mm 0 m/s 753 mmHg 98%
    04:00 +23°C° 0.3 mm 0 m/s 753 mmHg 97%
    05:00 +23°C° 0.3 mm 0 m/s 753 mmHg 97%
    06:00 +24°C° 0.2 mm 0 m/s 753 mmHg 94%
    07:00 +25°C° 0.2 mm 0 m/s 753 mmHg 91%
    08:00 +26°C° 0.2 mm 0 m/s 753 mmHg 89%
    09:00 +27°C° 1.3 mm 0 m/s 753 mmHg 86%
    10:00 +28°C° 1.3 mm 0 m/s 753 mmHg 83%
    11:00 +31°C° 1.3 mm 1 m/s 753 mmHg 79%
    12:00 +29°C° 2.9 mm 2 m/s 752 mmHg 84%
    13:00 +28°C° 2.9 mm 3 m/s 752 mmHg 89%
    14:00 +27°C° 2.9 mm 4 m/s 751 mmHg 93%
    15:00 +26°C° 1 mm 3 m/s 751 mmHg 94%
    16:00 +25°C° 1 mm 3 m/s 751 mmHg 95%
    17:00 +25°C° 1 mm 3 m/s 752 mmHg 96%
    18:00 +25°C° 1.7 mm 4 m/s 752 mmHg 96%
    19:00 +25°C° 1.7 mm 5 m/s 753 mmHg 96%
    20:00 +24°C° 1.7 mm 6 m/s 753 mmHg 96%
    21:00 +25°C° 1.8 mm 5 m/s 754 mmHg 96%
    22:00 +25°C° 1.8 mm 4 m/s 754 mmHg 96%
    23:00 +25°C° 1.8 mm 4 m/s 754 mmHg 97%

    Mâine, 22 August, Joi

    Timp Temperatura Precipitaţii Vânt Presiune Umiditate
    00:00 +25°C° 2.2 mm 4 m/s 753 mmHg 97%
    01:00 +25°C° 2.2 mm 4 m/s 753 mmHg 96%
    02:00 +25°C° 2.2 mm 4 m/s 752 mmHg 96%
    03:00 +25°C° 1.3 mm 3 m/s 752 mmHg 96%
    04:00 +25°C° 1.3 mm 3 m/s 753 mmHg 96%
    05:00 +25°C° 1.3 mm 2 m/s 753 mmHg 96%
    06:00 +25°C° 0.9 mm 2 m/s 753 mmHg 96%
    07:00 +25°C° 0.9 mm 2 m/s 754 mmHg 96%
    08:00 +25°C° 0.9 mm 2 m/s 754 mmHg 96%
    09:00 +26°C° 1.2 mm 3 m/s 754 mmHg 95%
    10:00 +26°C° 1.2 mm 3 m/s 754 mmHg 94%
    11:00 +26°C° 1.2 mm 3 m/s 754 mmHg 92%
    12:00 +26°C° 1.2 mm 3 m/s 754 mmHg 92%
    13:00 +26°C° 1.2 mm 3 m/s 754 mmHg 92%
    14:00 +27°C° 1.2 mm 3 m/s 753 mmHg 92%
    15:00 +26°C° 1.3 mm 3 m/s 753 mmHg 93%
    16:00 +26°C° 1.3 mm 3 m/s 753 mmHg 93%
    17:00 +26°C° 1.3 mm 3 m/s 753 mmHg 93%
    18:00 +25°C° 0.5 mm 2 m/s 754 mmHg 95%
    19:00 +25°C° 0.5 mm 1 m/s 754 mmHg 96%
    20:00 +25°C° 0.5 mm 1 m/s 755 mmHg 97%
    21:00 +24°C° 0.3 mm 1 m/s 755 mmHg 97%
    22:00 +24°C° 0.3 mm 1 m/s 755 mmHg 97%
    23:00 +24°C° 0.3 mm 1 m/s 756 mmHg 97%

    Poimâine, 23 August, Vineri

    Timp Temperatura Precipitaţii Vânt Presiune Umiditate
    00:00 +24°C° 0.4 mm 1 m/s 755 mmHg 97%
    01:00 +24°C° 0.4 mm 1 m/s 755 mmHg 97%
    02:00 +24°C° 0.4 mm 1 m/s 754 mmHg 97%
    03:00 +24°C° 0.1 mm 1 m/s 754 mmHg 97%
    04:00 +24°C° 0.1 mm 1 m/s 754 mmHg 97%
    05:00 +24°C° 0.1 mm 1 m/s 754 mmHg 97%
    06:00 +25°C° 0.2 mm 1 m/s 755 mmHg 95%
    07:00 +26°C° 0.2 mm 1 m/s 755 mmHg 94%
    08:00 +26°C° 0.2 mm 2 m/s 755 mmHg 92%
    09:00 +27°C° 0.8 mm 2 m/s 755 mmHg 91%
    10:00 +27°C° 0.8 mm 2 m/s 755 mmHg 91%
    11:00 +27°C° 0.8 mm 2 m/s 755 mmHg 90%
    12:00 +28°C° 2 mm 2 m/s 755 mmHg 89%
    13:00 +28°C° 2 mm 3 m/s 754 mmHg 88%
    14:00 +29°C° 2 mm 3 m/s 754 mmHg 86%
    15:00 +28°C° 2.3 mm 3 m/s 754 mmHg 88%
    16:00 +27°C° 2.3 mm 2 m/s 754 mmHg 91%
    17:00 +27°C° 2.3 mm 2 m/s 754 mmHg 93%
    18:00 +26°C° 0.6 mm 2 m/s 755 mmHg 94%
    19:00 +26°C° 0.6 mm 1 m/s 755 mmHg 95%
    20:00 +25°C° 0.6 mm 1 m/s 756 mmHg 96%
    21:00 +25°C° 0.4 mm 1 m/s 756 mmHg 96%
    22:00 +25°C° 0.4 mm 1 m/s 756 mmHg 96%
    23:00 +25°C° 0.4 mm 1 m/s 756 mmHg 96%

    24 August, Sâmbătă

    Timp Temperatura Precipitaţii Vânt Presiune Umiditate
    00:00 +25°C° 0.2 mm 1 m/s 755 mmHg 96%
    01:00 +23°C° 0.2 mm 0 m/s 755 mmHg 96%
    02:00 +23°C° 0.2 mm 0 m/s 754 mmHg 97%
    03:00 +22°C° 0.3 mm 0 m/s 754 mmHg 96%
    04:00 +22°C° 0.3 mm 0 m/s 754 mmHg 96%
    05:00 +22°C° 0.3 mm 0 m/s 754 mmHg 96%
    06:00 +23°C° 0.2 mm 0 m/s 755 mmHg 95%
    07:00 +23°C° 0.2 mm 0 m/s 755 mmHg 94%
    08:00 +24°C° 0.2 mm 0 m/s 755 mmHg 93%
    09:00 +24°C° 0.4 mm 0 m/s 755 mmHg 92%
    10:00 +27°C° 0.4 mm 1 m/s 755 mmHg 91%
    11:00 +27°C° 0.4 mm 1 m/s 755 mmHg 90%
    12:00 +27°C° 0.3 mm 2 m/s 755 mmHg 89%
    13:00 +28°C° 0.3 mm 2 m/s 754 mmHg 87%
    14:00 +28°C° 0.3 mm 3 m/s 754 mmHg 86%
    15:00 +27°C° 1.2 mm 2 m/s 753 mmHg 88%
    16:00 +27°C° 1.2 mm 2 m/s 753 mmHg 90%
    17:00 +26°C° 1.2 mm 2 m/s 753 mmHg 92%
    18:00 +26°C° 1.7 mm 2 m/s 754 mmHg 94%
    19:00 +25°C° 1.7 mm 1 m/s 754 mmHg 96%
    20:00 +25°C° 1.7 mm 1 m/s 755 mmHg 97%
    21:00 +25°C° 1.1 mm 1 m/s 755 mmHg 98%
    22:00 +25°C° 1 mm 1 m/s 755 mmHg 98%
    23:00 +23°C° 1 mm 0 m/s 755 mmHg 98%

    25 August, Duminică

    Timp Temperatura Precipitaţii Vânt Presiune Umiditate
    00:00 +23°C° 0.9 mm 0 m/s 755 mmHg 98%
    01:00 +22°C° 0.9 mm 0 m/s 754 mmHg 98%
    02:00 +22°C° 0.9 mm 0 m/s 754 mmHg 98%
    03:00 +22°C° 1.7 mm 0 m/s 754 mmHg 98%
    04:00 +24°C° 1.7 mm 1 m/s 754 mmHg 98%
    05:00 +24°C° 1.7 mm 1 m/s 753 mmHg 98%
    06:00 +25°C° 1 mm 1 m/s 754 mmHg 98%
    07:00 +25°C° 1 mm 1 m/s 754 mmHg 97%
    08:00 +25°C° 1 mm 1 m/s 754 mmHg 97%
    09:00 +25°C° 1.5 mm 1 m/s 754 mmHg 96%
    10:00 +26°C° 1.5 mm 1 m/s 754 mmHg 95%
    11:00 +26°C° 1.5 mm 1 m/s 754 mmHg 95%
    12:00 +26°C° 0.9 mm 1 m/s 754 mmHg 94%
    13:00 +26°C° 0.9 mm 1 m/s 754 mmHg 94%
    14:00 +26°C° 0.9 mm 2 m/s 753 mmHg 94%
    15:00 +26°C° 1.1 mm 1 m/s 753 mmHg 94%
    16:00 +26°C° 1.1 mm 1 m/s 753 mmHg 95%
    17:00 +25°C° 1.1 mm 1 m/s 753 mmHg 96%
    18:00 +25°C° 1.7 mm 1 m/s 754 mmHg 97%
    19:00 +25°C° 1.7 mm 1 m/s 754 mmHg 97%
    20:00 +25°C° 1.7 mm 1 m/s 755 mmHg 98%
    21:00 +25°C° 4.3 mm 1 m/s 755 mmHg 98%
    22:00 +25°C° 4.3 mm 1 m/s 755 mmHg 98%
    23:00 +25°C° 4.3 mm 1 m/s 755 mmHg 98%

    26 August, Luni

    Timp Temperatura Precipitaţii Vânt Presiune Umiditate
    00:00 +25°C° 7.8 mm 1 m/s 754 mmHg 98%
    01:00 +25°C° 7.8 mm 1 m/s 754 mmHg 98%
    02:00 +25°C° 7.8 mm 1 m/s 753 mmHg 99%
    03:00 +25°C° 3.5 mm 2 m/s 753 mmHg 98%
    04:00 +25°C° 3.5 mm 2 m/s 753 mmHg 98%
    05:00 +24°C° 3.5 mm 2 m/s 753 mmHg 98%
    06:00 +25°C° 6.7 mm 2 m/s 753 mmHg 98%
    07:00 +25°C° 6.7 mm 2 m/s 754 mmHg 98%
    08:00 +25°C° 6.7 mm 3 m/s 754 mmHg 98%
    09:00 +25°C° 5.3 mm 3 m/s 754 mmHg 98%
    10:00 +25°C° 5.3 mm 3 m/s 754 mmHg 98%
    11:00 +25°C° 5.3 mm 3 m/s 754 mmHg 98%
    12:00 +25°C° 2.9 mm 3 m/s 754 mmHg 97%
    13:00 +25°C° 2.9 mm 3 m/s 754 mmHg 97%
    14:00 +25°C° 2.9 mm 3 m/s 753 mmHg 97%
    15:00 +25°C° 1.9 mm 3 m/s 753 mmHg 97%
    16:00 +25°C° 1.9 mm 3 m/s 753 mmHg 97%
    17:00 +25°C° 1.9 mm 3 m/s 753 mmHg 97%
    18:00 +25°C° 1.1 mm 2 m/s 754 mmHg 97%
    19:00 +24°C° 1.1 mm 2 m/s 754 mmHg 98%
    20:00 +24°C° 1.1 mm 1 m/s 755 mmHg 98%
    21:00 +24°C° 0.7 mm 1 m/s 755 mmHg 98%
    22:00 +24°C° 0.7 mm 1 m/s 755 mmHg 98%
    23:00 +24°C° 0.7 mm 1 m/s 755 mmHg 98%
    Arată mai mult